Location: ??????
(56.0120°N, 39.1740°E)
Time: 17:19:44
(UTC+00:00)

CZ-2C R/B - Pass Details

Date: 14 April 2026
Orbit: 629 x 691 km, 98.1° (Epoch: 16 May)

Event Time Altitude Azimuth Distance (km) Brightness Sun altitude
Rises 20:00:45 0° 19° (NNE) 2,965 7.8 -22.1°
Reaches altitude 10° 20:03:07 10° 28° (NNE) 2,042 6.7 -22.3°
Enters shadow 20:07:01 39° 88° (E) 964 4.3 -22.4°
